Regional Weather Roundup
Issued by NWS

Home | Current Version | Previous Version | Graphics & Text | Print | Product List | Glossary On
Versions: 1 2 3 4 5 6 7 8 9 10 11 12 13 14 15 16 17 18 19 20 21 22 23 24 25 26 27 28 29 30 31 32 33 34 35 36 37 38 39 40 41 42 43 44 45 46 47 48 49 50
000
ASUS43 KLOT 190800
RWRIL

ILLINOIS REGIONAL WEATHER ROUNDUP
NATIONAL WEATHER SERVICE CHICAGO/ROMEOVILLE IL
300 AM CDT FRI SEP 19 2014

NOTE: "FAIR" INDICATES FEW OR NO CLOUDS BELOW 12,000 FEET WITH NO
SIGNIFICANT WEATHER AND/OR OBSTRUCTIONS TO VISIBILITY.

* THESE STATIONS ARE NOT UNDER NWS QUALITY CONTROL. THEY ALSO MAY NOT
  REPORT WEATHER SUCH AS PRECIPITATION OR FOG.

ILZ001-002-007-009-015-016-024-190900-
NORTHWEST ILLINOIS

CITY           SKY/WX    TMP DP  RH WIND       PRES   REMARKS
MOLINE         CLEAR     52  49  89 E7        30.11S FOG
STERLING*      CLEAR     46  43  87 CALM      30.12F
$$

ILZ003-004-008-010-011-017-018-190900-
NORTH CENTRAL ILLINOIS

CITY           SKY/WX    TMP DP  RH WIND       PRES   REMARKS
ROCKFORD       FOG       55  54  96 SE9       30.15F VSB 3/4
$$

ILZ005-006-012>014-019>023-190900-
NORTHEAST ILLINOIS

CITY           SKY/WX    TMP DP  RH WIND       PRES   REMARKS
CHICAGO-OHARE  CLEAR     55  52  89 E5        30.14F
CHICAGO-MIDWAY CLEAR     60  53  77 SE7       30.14F
AURORA         FOG       51  49  92 CALM      30.14F VSB<1/4
WAUKEGAN       FOG       54  53  97 CALM      30.14F VSB 1/2
DUPAGE AIRPORT CLEAR     56  54  93 E5        30.13F FOG
WHEELING       CLEAR     52  49  89 CALM      30.15F
NORTHERLY ISL    N/A     60  54  80 SE10        N/A
$$

LMZ740>746-190900-
SOUTHERN LAKE MICHIGAN

STATION/POSITION SKY/WX   TEMP    WIND        PRES    VSBY  WAVE
                          AIR SEA DIR/SP/G                  HT/PER
                          (F)     (DEG/KT/KT) (MB)    (MI)  (FT/S)
SOUTHERN BUOY              61 62  130/ 14/ 16 1022.0R         2/ 3
WAUKEGAN HARBOR            61     140/  9/ 10   N/A
HARRISON CRIB              63     130/ 11/ 13   N/A
BURNHAM HARBOR             60     140/  6/  9   N/A
CALUMET HARBOR             61     120/  5/  9 1019.9F
MICHIGAN CITY              58     110/  9/ 12   N/A
MICHIGAN CITY 6N           60 65  140/ 12/ 16   N/A           2/ 2
ST. JOSEPH                 58 66  120/ 14/ 17   N/A           2/ 2
$$

ILZ025>027-034>036-040-047-049-050-058-095>099-190900-
WEST-CENTRAL ILLINOIS

CITY           SKY/WX    TMP DP  RH WIND       PRES   REMARKS
QUINCY         CLEAR     55  50  83 SE6       30.08F
$$

ILZ028>032-037-038-041>044-048-051>054-059>061-190900-
CENTRAL ILLINOIS

CITY           SKY/WX    TMP DP  RH WIND       PRES   REMARKS
DECATUR        CLEAR     50  46  86 E3        30.12F
PEORIA         CLEAR     55  51  86 E6        30.11F
SPRINGFIELD    CLEAR     51  47  86 NE6       30.11S
TAYLORVILLE    NOT AVBL
$$

ILZ033-039-045-046-055>057-062-063-190900-
EAST-CENTRAL ILLINOIS

CITY           SKY/WX    TMP DP  RH WIND       PRES   REMARKS
CHAMPAIGN      CLEAR     50  47  89 E6        30.13F
MATTOON        CLEAR     52  48  86 CALM      30.11F
$$

ILZ079-100>102-190900-
SOUTHWEST ILLINOIS

CITY           SKY/WX    TMP DP  RH WIND       PRES   REMARKS
BELLEVILLE     CLEAR     55  54  94 CALM      30.07F FOG
CAHOKIA*       CLEAR     52  51  97 CALM      30.08S FOG
$$

ILZ064>066-069>071-074>076-080>082-084>086-088>090-092>094-190900-
SOUTH-CENTRAL ILLINOIS

CITY           SKY/WX    TMP DP  RH WIND       PRES   REMARKS
CARBONDALE     CLEAR     51  50  96 CALM      30.07S FOG
MT. VERNON     CLEAR     54  48  82 N3        30.09F
$$

ILZ067-068-072-073-078-083-087-091-190900-
SOUTHEAST ILLINOIS

CITY           SKY/WX    TMP DP  RH WIND       PRES   REMARKS
LAWRENCEVILLE  CLEAR     53  50  89 NE6       30.10F
$$

ABBREVIATIONS USED IN REMARKS
   TC - TEMPERATURE IN CELSIUS
  WCI - WIND CHILL INDEX
   HX - HEAT INDEX
  VSB - VISIBILITY
$$



USA.gov is the U.S. government's official web portal to all federal, state and local government web resources and services.